Simultaneous Nadir Overpasses (SNOs) Predictions

Prediction of SNOs between NOAA-19 and NPP Satellite Orbit:

Table of predicted SNOs for the next 14.0 days since TLE Epoch: 6/23/2015
Index Date (NOAA-19) Time (NOAA-19) Lat,Lon (NOAA-19) SZA (NOAA-19 ) Date (NPP) Time (NPP) Lat,Lon (NPP) SZA (NPP ) Distance(km) Time Diff (sec)
1 06/27/2015 08:27:58 -81.03,-179.59 118.49 06/27/2015 08:29:11 -81.04,-179.70 118.52 1.82 73
2 06/27/2015 09:19:03 81.03, -12.15 61.49 06/27/2015 09:19:55 81.02, -12.06 61.44 1.63 52
3 06/27/2015 10:10:00 -81.03, 155.13 118.52 06/27/2015 10:10:40 -81.02, 155.25 118.56 2.03 40
4 06/27/2015 11:01:05 81.03, -37.42 61.46 06/27/2015 11:01:25 81.03, -37.49 61.45 1.18 20
5 06/27/2015 11:52:02 -81.03, 129.86 118.55 06/27/2015 11:52:10 -81.03, 129.82 118.55 0.76 8
6 06/27/2015
